[[{"header":{"parameterUnit":"m.s-1","parameterCategory":1,"la1":30.2991,"la2":30.254,"lo1":-89.0895,"lo2":-89.0444,"dy":0.0017,"dx":0.0017,"nx":28,"ny":28,"refTime":"2023-05-23T21:00:00:Z","depth":0,"parameterNumber":2,"parameterNumberName":"U-component_of_WINDS"},"data":[0,0,0,0,0,0,0,0,0,0,0,0,0,0,0,0,0,0,0,0,0,0,0,0,0,0,0,0,0,0,0,0,0,0,0,0,0,0,0,0,0,0,0,0,0,0,0,0,0,0,0,0,0,0,0,0,0,0,-2.8887,-2.8888,0,-2.8985,-2.8987,-2.8988,-2.8895,-2.8892,-2.8888,-2.8884,-2.8988,-2.8994,-2.9,0,0,0,0,0,0,0,0,0,0,0,0,0,-2.8621,-2.8627,-2.8887,-2.8888,-2.889,-2.8985,-2.8987,-2.8988,-2.8896,-2.8891,-2.8887,-2.8883,-2.8986,-2.8993,-2.9,0,0,0,0,0,0,0,0,0,0,0,0,0,-2.873,-2.8628,-2.8887,-2.8855,-2.8853,-2.8985,-2.8987,-2.8988,-2.8897,-2.8891,-2.8886,-2.8881,-2.8983,-2.8992,-2.9001,-2.917,0,0,-2.903,-2.9034,0,0,0,0,0,0,0,0,-2.8724,-2.874,-2.8859,-2.8858,-2.8856,-2.8922,-2.8931,-2.9049,-2.8898,-2.8881,-2.8884,-2.8878,-2.8971,-2.8981,-2.9011,-2.9175,-2.9179,-2.9031,-2.9036,-2.904,-2.9043,0,0,0,0,0,0,0,-2.8717,-2.8735,-2.8926,-2.886,-2.8859,-2.8837,-2.8846,-2.8953,-2.8956,-2.8882,-2.8875,-2.8888,-2.8969,-2.9003,-2.9013,-2.9181,-2.903,-2.9039,-2.9044,-2.9048,-2.9489,-2.9495,0,0,0,0,0,0,-2.8712,-2.873,-2.8923,-2.8929,-2.8775,-2.8846,-2.8856,-2.8907,-2.8954,-2.8956,-2.8893,-2.8883,-2.8989,-2.9002,-2.9016,-2.9218,-2.904,-2.9049,-2.9054,-2.9483,-2.949,-2.9497,0,0,0,0,0,0,-2.8707,-2.873,-2.8919,-2.8828,-2.885,-2.8856,-2.8914,-2.8912,-2.8945,-2.8962,-2.8963,-2.8927,-2.8986,-2.9003,-2.9133,-2.9221,-2.9053,-2.9062,-2.9476,-2.9485,-2.9494,-2.9624,0,0,0,0,0,0,-2.87,-2.8729,-2.8793,-2.883,-2.8855,-2.9034,-2.8919,-2.8917,-2.8961,-2.895,-2.8994,-2.8996,-2.8982,-2.9119,-2.9142,-2.9231,-2.9069,-2.9468,-2.948,-2.9491,-2.9612,-2.9636,-2.9657,0,0,0,0,0,-2.869,-2.8826,-2.8797,-2.8821,-2.8935,-2.9039,-2.9054,-2.9034,-2.8969,-2.9034,-2.9044,-2.8995,-2.9207,-2.9133,-2.9158,-2.9251,-2.9462,-2.9477,-2.949,-2.9601,-2.9631,-2.9657,0,0,0,0,0,0,-2.88,-2.883,-2.8798,-2.8949,-2.8992,-2.9023,-2.9104,-2.9066,-2.9129,-2.9116,-2.909,-2.9101,-2.9238,-2.9256,-2.9174,-2.9417,-2.9324,-2.9344,-2.94,-2.9429,-2.9451,-2.9445,-2.9077,0,0,0,0,0,-2.8842,-2.8923,-2.8945,-2.9076,-2.9099,-2.9098,-2.9143,-2.9124,-2.9168,-2.9186,-2.9206,-2.9251,-2.9327,-2.9379,-2.945,-2.9613,-2.9622,-2.9689,-2.9711,-2.973,-2.9748,-2.9837,-2.9867,-2.9542,-2.9542,-2.9542,0,0,-2.893,-2.8956,-2.9009,-2.9099,-2.913,-2.9216,-2.9114,-2.9209,-2.9273,-2.92,-2.9324,-2.934,-2.9389,-2.9536,-2.9602,-2.9556,-2.9839,-2.9747,-2.9762,-2.977,-2.9854,-2.9885,-2.9912,-2.9552,-2.955,-2.9548,0,0,-2.9133,-2.916,-2.9273,-2.9306,-2.9354,-2.9352,-2.9379,-2.9416,-2.9424,-2.9547,-2.9495,-2.957,-2.9702,-2.9739,-2.9776,-2.9992,-2.995,-3.0016,-3.0136,-3.0223,-3.0249,-3.0271,-3.0351,-3.0379,-3.0033,-3.0033,-3.0034,0,-2.9236,-2.9362,-2.9336,-2.9435,-2.9477,-2.9414,-2.9529,-2.9562,-2.9631,-2.9662,-2.9609,-2.9774,-2.9802,-2.9957,-3.001,-3.0041,-3.0072,-3.0012,-3.0247,-3.0269,-3.029,-3.0365,-3.0395,-3.0041,-3.004,-3.004,-3.0039,0,-2.9488,-2.9576,-2.9661,-2.9729,-2.978,-2.9887,-2.9878,-2.9932,-2.9909,-2.9913,-3.004,-3.0071,-3.0148,-3.0182,-3.016,-3.0336,-3.0306,-3.025,-3.0157,-3.0329,-3.04,-3.0428,-3.0053,-3.005,-3.0047,-3.0045,0,0,-2.9766,-2.9817,-2.9849,-2.9879,-2.9927,-2.9995,-3.0098,-3.0173,-3.0221,-3.027,-3.0358,-3.047,-3.0419,-3.0461,-3.0442,-3.0518,-3.069,-3.0453,-3.0453,-3.0498,-3.0887,-3.093,-3.0964,-3.066,-3.0665,-3.067,-3.0883,0,-2.9972,-3.0152,-3.0131,-3.0303,-3.0385,-3.0326,-3.0416,-3.0455,-3.0462,-3.0532,-3.0539,-3.062,-3.0545,-3.057,-3.0642,-3.0653,-3.0768,-3.0637,-3.0743,-3.0747,-3.0736,-3.1,-3.1047,-3.1247,-3.091,-3.0915,-3.0918,0,-3.0238,-3.0297,-3.0477,-3.0512,-3.0546,-3.0627,-3.0694,-3.0762,-3.0806,-3.0805,-3.085,-3.0818,-3.0923,-3.0825,-3.097,-3.0882,-3.0923,-3.0935,-3.0942,-3.0954,-3.0845,-3.1022,-3.131,-3.1341,-3.0961,-3.0958,-3.0955,0,-3.0426,-3.0549,-3.0673,-3.0701,-3.0744,-3.0803,-3.0824,-3.0862,-3.0908,-3.0967,-3.0997,-3.1066,-3.1106,-3.1161,-3.1148,-3.1078,-3.1297,-3.1198,-3.1301,-3.1302,-3.1352,-3.135,-3.1654,-3.1375,-3.1374,-3.1374,-3.1373,0,-3.0661,-3.0774,-3.0758,-3.0835,-3.096,-3.0935,-3.106,-3.1073,-3.1107,-3.1186,-3.1138,-3.1213,-3.1191,-3.1265,-3.1256,-3.1378,-3.1396,-3.1399,-3.1396,-3.1405,-3.1405,-3.1434,-3.1421,-3.1382,-3.138,-3.1379,-3.1377,0,-3.0893,-3.0887,-3.1018,-3.1048,-3.1059,-3.115,-3.1176,-3.1248,-3.1249,-3.135,-3.1372,-3.1375,-3.146,-3.1452,-3.1548,-3.1542,-3.1694,-3.1673,-3.168,-3.1676,-3.1781,-3.1772,-3.2117,-3.2161,-3.1851,-3.1854,-3.1856,0,-3.1045,-3.113,-3.1169,-3.1218,-3.1243,-3.1323,-3.1369,-3.1347,-3.1398,-3.1454,-3.152,-3.16,-3.1664,-3.1802,-3.1814,-3.1887,-3.1869,-3.1984,-3.188,-3.1886,-3.1873,-3.187,-3.1879,-3.2006,-3.201,-3.2012,-3.2015,0,-3.1316,-3.1308,-3.1377,-3.1445,-3.1502,-3.1555,-3.1603,-3.1646,-3.1628,-3.1688,-3.1774,-3.1823,-3.192,-3.2001,-3.207,-3.2092,-3.2052,-3.2047,-3.2075,-3.2087,-3.2089,-3.2092,-3.1739,-3.204,-3.2037,-3.2036,-3.2034,-3.2033,-3.1514,-3.1587,-3.1627,-3.1705,-3.1738,-3.1784,-3.1854,-3.1864,-3.1935,-3.2012,-3.1994,-3.2092,-3.2133,-3.2221,-3.225,-3.2327,-3.2285,-3.2325,-3.2336,-3.2347,-3.236,-3.2074,-3.2339,-3.2338,-3.2337,-3.2337,-3.2336,0,-3.1784,-3.1806,-3.1878,-3.1946,-3.2008,-3.1962,-3.2013,-3.2068,-3.2154,-3.2195,-3.2258,-3.2358,-3.2436,-3.2453,-3.2528,-3.2586,-3.2569,-3.2606,-3.2603,-3.261,-3.2392,-3.2361,-3.2619,-3.2619,-3.2619,-3.2619,-3.2618,-3.2618,-3.1932,-3.2055,-3.2052,-3.2191,-3.2212,-3.2306,-3.2339,-3.2382,-3.2415,-3.2527,-3.2592,-3.2602,-3.2634,-3.271,-3.278,-3.2783,-3.2814,-3.286,-3.2856,-3.2653,-3.2625,-3.2598,-3.2569,-3.2866,-3.2866,-3.3067,-3.3069,-3.307]},{"header":{"parameterUnit":"m.s-1","parameterCategory":1,"la1":30.2991,"la2":30.254,"lo1":-89.0895,"lo2":-89.0444,"dy":0.0017,"dx":0.0017,"nx":28,"ny":28,"refTime":"2023-05-23T21:00:00:Z","depth":0,"parameterNumber":3,"parameterNumberName":"V-component_of_WINDS"},"data":[0,0,0,0,0,0,0,0,0,0,0,0,0,0,0,0,0,0,0,0,0,0,0,0,0,0,0,0,0,0,0,0,0,0,0,0,0,0,0,0,0,0,0,0,0,0,0,0,0,0,0,0,0,0,0,0,0,0,-4.4569,-4.4569,0,-4.4575,-4.4575,-4.4576,-4.4501,-4.4499,-4.4497,-4.4495,-4.4502,-4.4504,-4.4506,0,0,0,0,0,0,0,0,0,0,0,0,0,-4.449,-4.4491,-4.4569,-4.4569,-4.4569,-4.4575,-4.4575,-4.4576,-4.4502,-4.4499,-4.4497,-4.4495,-4.4501,-4.4504,-4.4506,0,0,0,0,0,0,0,0,0,0,0,0,0,-4.4513,-4.4492,-4.4569,-4.4533,-4.453,-4.4575,-4.4575,-4.4576,-4.4502,-4.4499,-4.4496,-4.4493,-4.45,-4.4504,-4.4507,-4.4587,0,0,-4.4516,-4.4517,0,0,0,0,0,0,0,0,-4.4512,-4.4516,-4.4538,-4.4535,-4.4532,-4.4534,-4.455,-4.4579,-4.4503,-4.4513,-4.4495,-4.4492,-4.4515,-4.4517,-4.4525,-4.4587,-4.4587,-4.4516,-4.4518,-4.452,-4.452,0,0,0,0,0,0,0,-4.451,-4.4515,-4.4571,-4.4538,-4.4535,-4.4516,-4.4516,-4.4555,-4.4531,-4.4512,-4.4506,-4.4508,-4.4513,-4.4522,-4.4524,-4.4588,-4.4516,-4.4519,-4.4521,-4.4522,-4.4713,-4.4716,0,0,0,0,0,0,-4.4514,-4.4514,-4.4571,-4.4571,-4.4514,-4.452,-4.4519,-4.4537,-4.453,-4.4526,-4.4511,-4.4505,-4.4518,-4.4521,-4.4524,-4.4616,-4.452,-4.4522,-4.4524,-4.471,-4.4714,-4.4717,0,0,0,0,0,0,-4.4512,-4.4519,-4.4571,-4.4541,-4.4547,-4.4524,-4.4544,-4.4538,-4.4547,-4.453,-4.4525,-4.4525,-4.4516,-4.452,-4.4571,-4.4615,-4.4524,-4.4527,-4.4706,-4.4711,-4.4716,-4.4801,0,0,0,0,0,0,-4.451,-4.4519,-4.455,-4.4543,-4.4548,-4.4618,-4.4547,-4.4541,-4.4553,-4.4545,-4.4541,-4.4538,-4.4514,-4.4567,-4.4574,-4.4618,-4.4529,-4.4702,-4.4709,-4.4714,-4.4794,-4.4808,-4.482,0,0,0,0,0,-4.4508,-4.4575,-4.4552,-4.4559,-4.4587,-4.4621,-4.4624,-4.4595,-4.4557,-4.4587,-4.4575,-4.4538,-4.461,-4.4573,-4.4581,-4.4626,-4.4699,-4.4707,-4.4714,-4.4788,-4.4806,-4.482,0,0,0,0,0,0,-4.4588,-4.4573,-4.4548,-4.4615,-4.462,-4.4608,-4.4646,-4.4615,-4.4631,-4.4623,-4.4586,-4.4586,-4.4643,-4.464,-4.4599,-4.4702,-4.4648,-4.4657,-4.4702,-4.4718,-4.4731,-4.473,-4.4532,0,0,0,0,0,-4.4614,-4.4643,-4.4628,-4.4688,-4.4692,-4.4669,-4.4683,-4.466,-4.4664,-4.4666,-4.4658,-4.4662,-4.4685,-4.4702,-4.4722,-4.4794,-4.4791,-4.4828,-4.4841,-4.4852,-4.486,-4.4895,-4.4911,-4.4741,-4.4741,-4.4741,0,0,-4.4667,-4.4662,-4.4683,-4.4704,-4.4706,-4.4736,-4.4671,-4.4707,-4.4729,-4.4671,-4.4718,-4.4713,-4.4715,-4.4777,-4.4803,-4.4775,-4.4907,-4.4861,-4.487,-4.4872,-4.4905,-4.4921,-4.4935,-4.4746,-4.4745,-4.4744,0,0,-4.4778,-4.4779,-4.4827,-4.483,-4.4832,-4.4816,-4.4828,-4.4821,-4.4815,-4.4862,-4.4818,-4.4844,-4.4885,-4.4888,-4.4895,-4.5007,-4.4972,-4.5014,-4.5082,-4.5117,-4.513,-4.5142,-4.5179,-4.5194,-4.5023,-4.5023,-4.5023,0,-4.4844,-4.4888,-4.4856,-4.4894,-4.4904,-4.4853,-4.4901,-4.4905,-4.4914,-4.4922,-4.4891,-4.494,-4.4939,-4.4999,-4.5026,-4.5034,-4.5045,-4.5014,-4.5131,-4.5142,-4.5153,-4.5188,-4.5203,-4.5028,-4.5027,-4.5027,-4.5026,0,-4.4967,-4.4999,-4.5038,-4.5047,-4.5061,-4.5105,-4.5078,-4.5097,-4.5072,-4.5059,-4.5107,-4.5103,-4.5121,-4.5134,-4.5111,-4.519,-4.5173,-4.5137,-4.5082,-4.5174,-4.5207,-4.522,-4.5035,-4.5033,-4.5032,-4.503,0,0,-4.513,-4.512,-4.5135,-4.5137,-4.5135,-4.5159,-4.5199,-4.5216,-4.5231,-4.524,-4.5271,-4.5307,-4.5273,-4.5281,-4.5258,-4.5289,-4.5375,-4.5249,-4.5249,-4.5271,-4.546,-4.5485,-4.5502,-4.5352,-4.5355,-4.5357,-4.5459,0,-4.5237,-4.5304,-4.5276,-4.5346,-4.5373,-4.5325,-4.5359,-4.5361,-4.535,-4.5371,-4.5358,-4.5383,-4.5338,-4.5342,-4.5371,-4.5358,-4.5412,-4.5351,-4.538,-4.5382,-4.5379,-4.5519,-4.5546,-4.5643,-4.5471,-4.5474,-4.5475,0,-4.5371,-4.5383,-4.5456,-4.5447,-4.5457,-4.5489,-4.5501,-4.5522,-4.5523,-4.5513,-4.5521,-4.5491,-4.5528,-4.5474,-4.5525,-4.5484,-4.5494,-4.549,-4.5493,-4.5493,-4.5433,-4.5521,-4.5673,-4.5687,-4.5495,-4.5494,-4.5492,0,-4.548,-4.5514,-4.5561,-4.5565,-4.5557,-4.558,-4.5578,-4.5575,-4.5587,-4.5598,-4.5605,-4.562,-4.5629,-4.5641,-4.5615,-4.5579,-4.5669,-4.5613,-4.566,-4.5661,-4.568,-4.5679,-4.5834,-4.569,-4.569,-4.5689,-4.5689,0,-4.5601,-4.5647,-4.561,-4.5639,-4.5688,-4.5655,-4.5704,-4.5696,-4.5695,-4.5721,-4.568,-4.5705,-4.567,-4.5692,-4.5672,-4.5716,-4.572,-4.5712,-4.5706,-4.5715,-4.5715,-4.572,-4.5712,-4.5693,-4.5692,-4.5692,-4.5691,0,-4.573,-4.5708,-4.5755,-4.5743,-4.5741,-4.5777,-4.5766,-4.5792,-4.5778,-4.5811,-4.5816,-4.5794,-4.5817,-4.5792,-4.5814,-4.5801,-4.5859,-4.5844,-4.5859,-4.5854,-4.5901,-4.5896,-4.6063,-4.6082,-4.5928,-4.5929,-4.5931,0,-4.5809,-4.5842,-4.5833,-4.5847,-4.5846,-4.587,-4.5881,-4.585,-4.5863,-4.5865,-4.589,-4.591,-4.5924,-4.5963,-4.5948,-4.5964,-4.5948,-4.6005,-4.595,-4.5957,-4.5946,-4.5944,-4.5946,-4.6016,-4.6018,-4.6019,-4.602,0,-4.5949,-4.5935,-4.5953,-4.5966,-4.598,-4.5989,-4.5995,-4.6009,-4.5976,-4.5992,-4.6015,-4.6026,-4.6047,-4.6066,-4.6078,-4.6075,-4.6042,-4.6038,-4.6049,-4.6058,-4.6064,-4.6059,-4.5887,-4.6034,-4.6033,-4.6032,-4.6031,-4.603,-4.6053,-4.608,-4.6077,-4.6097,-4.6098,-4.6104,-4.6127,-4.6114,-4.6132,-4.6147,-4.6127,-4.6155,-4.6153,-4.6165,-4.6166,-4.6187,-4.6162,-4.6179,-4.6183,-4.6187,-4.6193,-4.6062,-4.6189,-4.6189,-4.6188,-4.6188,-4.6187,0,-4.619,-4.6185,-4.6204,-4.6212,-4.6228,-4.6195,-4.62,-4.6215,-4.6239,-4.6241,-4.6254,-4.628,-4.6298,-4.6284,-4.6299,-4.6318,-4.6304,-4.6323,-4.6321,-4.632,-4.6215,-4.6203,-4.6335,-4.6335,-4.6335,-4.6335,-4.6335,-4.6335,-4.6262,-4.6305,-4.6291,-4.6333,-4.6328,-4.6354,-4.6359,-4.6364,-4.6364,-4.6394,-4.6408,-4.6399,-4.6394,-4.6408,-4.6423,-4.6419,-4.6425,-4.645,-4.644,-4.6342,-4.6328,-4.6314,-4.6302,-4.6452,-4.6452,-4.6543,-4.6543,-4.6544]}]]